Stations météo

Publicité
Noervenich/Flugplatz, Allemagne (10502): Température de l'air & dewpoint: 07.12.2018 11:00:00 - 13.12.2018 11:00:00 (CET)Noervenich/Flugplatz, Allemagne (10502): Vitesse du vent & gusts: 07.12.2018 11:00:00 - 13.12.2018 11:00:00 (CET)Noervenich/Flugplatz, Allemagne (10502): Direction du vent: 07.12.2018 11:00:00 - 13.12.2018 11:00:00 (CET)Noervenich/Flugplatz, Allemagne (10502): reduced air pressure: 07.12.2018 11:00:00 - 13.12.2018 11:00:00 (CET)Noervenich/Flugplatz, Allemagne (10502): visibility: 07.12.2018 11:00:00 - 13.12.2018 11:00:00 (CET)
Date & Time tt [°C] td [°C] ff [km/h] ff [knt] fx [km/h] fx [knt] dd ppp [hPa] vv [km]
13.12.2018 11:00:00 1,0 -3,3 18 10 - - ESE 1021,5 20
13.12.2018 10:00:00 0,3 -2,7 18 10 - - ESE 1021,6 20
13.12.2018 09:00:00 -0,9 -2,7 11 6 - - E 1021,5 20
13.12.2018 08:00:00 -1,0 -2,0 7 4 - - ESE 1021,3 20
13.12.2018 07:00:00 -0,7 -1,4 4 2 - - ESE 1021,2 20
13.12.2018 06:00:00 -1,0 -2,0 4 2 - - SSE 1021,5 15
13.12.2018 05:00:00 -0,4 -1,7 7 4 - - SE 1021,8 15
13.12.2018 04:00:00 0,6 -1,2 11 6 - - ESE 1022,3 20
13.12.2018 03:00:00 0,2 -1,4 4 2 - - ESE 1022,6 20
13.12.2018 02:00:00 0,5 -1,3 7 4 - - ESE 1023,0 20
13.12.2018 01:00:00 2,5 -0,8 11 6 - - E 1023,2 20
13.12.2018 00:00:00 1,1 -0,6 4 2 - - ENE 1023,9 20
12.12.2018 23:00:00 1,4 -1,2 4 2 - - N 1024,3 20
12.12.2018 22:00:00 0,2 -1,7 4 2 - - N 1024,6 15
12.12.2018 21:00:00 1,3 -1,3 7 4 - - SE 1024,6 15
12.12.2018 20:00:00 2,4 -0,6 7 4 - - ESE 1024,6 15
12.12.2018 19:00:00 1,5 -0,7 4 2 - - E 1024,7 15
12.12.2018 18:00:00 2,2 -0,2 5 3 - - ENE 1024,6 10
12.12.2018 17:00:00 2,2 -0,4 4 2 - - N 1024,6 15
12.12.2018 16:00:00 2,7 -0,3 4 2 - - NNW 1024,7 10
12.12.2018 15:00:00 3,9 0,5 4 2 - - NNE 1024,8 10
12.12.2018 14:00:00 3,8 1,0 8 4 - - ENE 1025,5 8
12.12.2018 13:00:00 3,3 2,3 4 2 - - NE 1025,8 6
12.12.2018 12:00:00 2,8 2,3 7 4 - - NNE 1026,2 3,8
12.12.2018 11:00:00 2,2 1,8 2 1 - - - 1026,6 0,9
12.12.2018 10:00:00 1,6 1,2 4 2 - - NW 1026,4 1,7
12.12.2018 09:00:00 1,7 1,2 0 0 - - N 1026,0 2,0
12.12.2018 08:00:00 1,8 1,2 2 1 - - NW 1025,8 4,0
12.12.2018 07:00:00 1,6 0,9 4 2 - - N 1025,6 10
12.12.2018 06:00:00 1,3 0,6 7 4 - - W 1025,3 10
12.12.2018 05:00:00 1,4 0,7 7 4 - - W 1025,4 15
12.12.2018 04:00:00 1,6 0,9 7 4 - - W 1025,3 15
12.12.2018 03:00:00 1,4 0,8 7 4 - - W 1025,3 12
12.12.2018 02:00:00 1,2 0,5 7 4 - - W 1025,0 12
12.12.2018 01:00:00 1,2 0,5 11 6 - - WNW 1025,2 15
12.12.2018 00:00:00 1,3 0,6 11 6 - - WNW 1025,2 18
11.12.2018 23:00:00 1,6 0,5 14 8 - - W 1025,2 25
11.12.2018 22:00:00 2,5 1,4 11 6 - - W 1025,0 25
11.12.2018 21:00:00 2,9 1,8 7 4 - - W 1025,0 15
11.12.2018 20:00:00 2,5 1,2 0 0 - - N 1025,0 15
11.12.2018 19:00:00 3,2 1,9 14 8 - - WNW 1024,8 15
11.12.2018 18:00:00 4,4 1,9 11 6 - - WNW 1024,3 15
11.12.2018 17:00:00 3,9 2,0 14 8 - - WNW 1024,2 12
11.12.2018 16:00:00 4,3 1,5 14 8 - - WNW 1024,1 12
11.12.2018 15:00:00 5,0 1,7 14 8 - - WNW 1024,1 15
11.12.2018 14:00:00 4,7 2,0 18 10 - - WNW 1024,3 12
11.12.2018 13:00:00 4,7 1,9 14 8 - - WNW 1024,6 8
11.12.2018 12:00:00 4,5 1,7 22 12 - - WNW 1024,8 15
11.12.2018 11:00:00 4,0 1,9 18 10 - - WNW 1024,8 15
11.12.2018 10:00:00 3,1 1,8 14 8 - - WNW 1024,7 8
11.12.2018 09:00:00 2,7 1,2 14 8 - - WNW 1024,6 10
11.12.2018 08:00:00 3,0 1,4 11 6 - - NW 1024,5 8
11.12.2018 07:00:00 2,9 1,4 22 12 - - WNW 1024,3 25
11.12.2018 06:00:00 2,9 1,5 18 10 - - WNW 1024,3 30
11.12.2018 05:00:00 3,5 1,9 22 12 - - NW 1024,0 30
11.12.2018 04:00:00 3,5 2,0 25 14 - - NW 1024,5 30
11.12.2018 03:00:00 3,6 1,9 22 12 - - NW 1024,4 30
11.12.2018 02:00:00 3,4 1,4 22 12 - - NW 1024,5 30
11.12.2018 01:00:00 3,8 1,8 25 14 - - NW 1024,5 30
11.12.2018 00:00:00 3,9 1,6 22 12 - - WNW 1024,3 30
10.12.2018 23:00:00 3,7 1,5 22 12 - - NW 1024,3 30
10.12.2018 22:00:00 3,1 1,3 25 14 - - WNW 1024,3 30
10.12.2018 21:00:00 3,3 1,7 22 12 - - NW 1024,1 30
10.12.2018 20:00:00 3,9 1,7 22 12 - - NW 1024,2 30
10.12.2018 19:00:00 3,9 2,5 22 12 - - NW 1023,7 30
10.12.2018 18:00:00 4,0 2,2 18 10 - - NW 1023,5 25
10.12.2018 17:00:00 4,5 2,5 22 12 - - NW 1023,1 25
10.12.2018 16:00:00 4,4 2,8 22 12 - - NW 1022,8 25
10.12.2018 15:00:00 4,0 2,6 22 12 47 25 NW 1022,4 25
10.12.2018 14:00:00 4,2 2,5 22 12 - - NNW 1022,3 22
10.12.2018 13:00:00 5,9 3,3 25 14 - - W 1022,2 12
10.12.2018 12:00:00 4,7 3,0 32 18 - - WNW 1022,5 9
10.12.2018 11:00:00 4,4 2,5 34 18 50 27 WNW 1022,6 8
10.12.2018 10:00:00 4,3 2,4 29 16 - - WNW 1022,3 8
10.12.2018 09:00:00 4,1 1,9 25 14 - - NW 1021,7 15
10.12.2018 08:00:00 4,2 2,1 29 16 - - WNW 1021,3 20
10.12.2018 07:00:00 4,1 2,1 25 14 - - WNW 1020,5 20
10.12.2018 06:00:00 4,4 2,3 29 16 47 25 NW 1019,8 20
10.12.2018 05:00:00 4,8 2,2 22 12 - - NW 1019,5 20
10.12.2018 04:00:00 4,9 2,2 22 12 - - WNW 1019,1 20
10.12.2018 03:00:00 5,0 2,3 29 16 - - WNW 1018,6 30
10.12.2018 02:00:00 5,1 2,6 25 14 - - WNW 1017,7 30
10.12.2018 01:00:00 5,9 3,4 25 14 - - WNW 1017,1 30
10.12.2018 00:00:00 5,8 3,8 25 14 - - W 1016,0 30
09.12.2018 23:00:00 5,8 3,8 25 14 - - WNW 1015,2 30
09.12.2018 22:00:00 5,9 4,0 22 12 - - WNW 1014,0 25
09.12.2018 21:00:00 6,2 4,1 25 14 - - WNW 1013,3 25
09.12.2018 20:00:00 6,3 4,2 37 20 61 33 NW 1012,4 10
09.12.2018 19:00:00 6,8 4,3 25 14 - - WNW 1010,2 25
09.12.2018 18:00:00 6,9 4,2 32 18 47 25 WNW 1008,5 30
09.12.2018 17:00:00 7,6 5,3 32 18 - - WNW 1006,7 30
09.12.2018 16:00:00 7,3 5,7 22 12 - - WNW 1005,3 30
09.12.2018 15:00:00 6,5 5,1 26 14 50 27 NW 1003,8 10
09.12.2018 14:00:00 7,5 5,6 32 18 47 25 W 1001,8 30
09.12.2018 13:00:00 6,3 4,7 32 18 - - W 1001,3 8
09.12.2018 12:00:00 6,4 5,2 36 19 58 31 W 1001,0 2,0
09.12.2018 11:00:00 7,7 5,9 36 19 58 31 W 1000,3 5
09.12.2018 10:00:00 8,1 4,7 40 21 - - W 999,7 7
09.12.2018 09:00:00 8,4 3,9 40 21 61 33 W 998,8 8
09.12.2018 08:00:00 8,4 4,2 43 23 68 37 W 998,1 8
09.12.2018 07:00:00 8,1 4,9 40 21 - - W 997,5 5
09.12.2018 06:00:00 8,7 4,5 47 25 79 43 W 996,9 8
09.12.2018 05:00:00 8,3 5,0 43 23 68 37 W 996,8 6
09.12.2018 04:00:00 8,9 4,7 40 21 - - W 996,8 7
09.12.2018 03:00:00 8,9 4,3 50 27 79 43 W 996,3 8
09.12.2018 02:00:00 9,1 5,1 50 27 83 45 W 995,6 6
09.12.2018 01:00:00 9,3 6,0 43 23 - - W 995,5 7
09.12.2018 00:00:00 10,1 6,4 43 23 72 39 W 995,7 8
08.12.2018 23:00:00 10,1 6,3 36 19 76 41 W 996,1 2,1
08.12.2018 22:00:00 10,6 7,0 43 23 - - WSW 996,5 1,4
08.12.2018 21:00:00 10,3 6,5 29 16 50 27 WSW 998,3 6
08.12.2018 20:00:00 8,8 7,0 22 12 47 25 SW 1000,4 8
08.12.2018 19:00:00 9,3 5,9 18 10 - - SW 1002,2 8
08.12.2018 18:00:00 9,3 5,6 29 16 50 27 WSW 1003,6 8
08.12.2018 17:00:00 9,7 4,5 32 18 54 29 WSW 1004,2 8
08.12.2018 16:00:00 9,8 4,0 40 21 - - W 1004,5 9
08.12.2018 15:00:00 9,6 4,2 40 21 68 37 W 1004,8 9
08.12.2018 14:00:00 9,3 4,3 36 19 58 31 W 1005,0 9
08.12.2018 13:00:00 8,6 4,7 36 19 - - W 1005,4 9
08.12.2018 12:00:00 8,5 4,4 40 21 65 35 WSW 1005,0 9
08.12.2018 11:00:00 7,8 4,9 36 19 58 31 WSW 1005,4 5
08.12.2018 10:00:00 7,6 3,7 36 19 - - WSW 1005,4 4,2
08.12.2018 09:00:00 6,7 3,4 25 14 54 29 WSW 1006,0 10
08.12.2018 08:00:00 6,4 3,2 22 12 54 29 SW 1006,3 10
08.12.2018 07:00:00 7,1 3,4 29 16 - - WSW 1006,3 10
08.12.2018 06:00:00 7,0 3,1 25 14 50 27 WSW 1006,4 9
08.12.2018 05:00:00 7,1 2,6 29 16 54 29 WSW 1006,5 9
08.12.2018 04:00:00 6,7 2,1 29 16 - - WSW 1007,1 9
08.12.2018 03:00:00 6,7 2,2 40 21 65 35 WSW 1007,5 8
08.12.2018 02:00:00 6,1 3,0 40 21 68 37 W 1007,1 5
08.12.2018 01:00:00 6,7 2,5 29 16 - - W 1007,1 8
08.12.2018 00:00:00 6,1 2,7 36 19 54 29 W 1007,0 9
07.12.2018 23:00:00 6,9 4,0 36 19 54 29 W 1006,1 8
07.12.2018 22:00:00 6,4 3,6 36 19 - - W 1005,4 9
07.12.2018 21:00:00 6,4 5,0 25 14 58 31 W 1004,3 3,4
07.12.2018 20:00:00 7,1 5,6 47 25 68 37 W 1002,8 15
07.12.2018 19:00:00 9,0 6,5 44 24 - - W 1000,3 10
07.12.2018 18:00:00 10,5 7,3 22 12 - - SSW 999,3 20
07.12.2018 17:00:00 10,5 7,4 22 12 47 25 SSW 1000,4 25
07.12.2018 16:00:00 11,8 6,5 25 14 - - SW 1001,6 30
07.12.2018 15:00:00 12,3 6,7 29 16 50 27 SW 1003,0 30
07.12.2018 14:00:00 13,0 7,4 29 16 50 27 SSW 1003,5 25
07.12.2018 13:00:00 12,5 7,6 29 16 - - SW 1005,4 25
07.12.2018 12:00:00 12,2 7,7 11 6 - - SSW 1007,5 20
07.12.2018 11:00:00 11,9 7,9 14 8 - - SW 1009,2 20

tt = Température de l'air
td = dewpoint
ff = Vitesse du vent
fx = gusts
dd = Direction du vent
ppp = reduced air pressure
vv = visibility

stations d'obs. à proximité